| time (UTC) | temp F | wind direction | speed knots | gust knots | rain 1hr in | rain 24hr in | rain mn in | humidity % | barometer mb |
| 20260507094550 | 59 | 151 | 0.9 | 4.3 | 0.00 | 0.00 | 0.00 | 56 | 1016.8 |
| 20260507093048 | 59 | 268 | 0.0 | 5.2 | 0.00 | 0.00 | 0.00 | 56 | 1016.8 |
| 20260507091546 | 59 | 129 | 0.0 | 3.5 | 0.00 | 0.00 | 0.00 | 58 | 1016.9 |
| 20260507090039 | 58 | 177 | 0.9 | 5.2 | 0.00 | 0.00 | 0.00 | 59 | 1016.9 |
| 20260507084532 | 58 | 135 | 2.6 | 6.1 | 0.00 | 0.00 | 0.00 | 53 | 1016.9 |
| 20260507083032 | 56 | 91 | 1.7 | 4.3 | 0.00 | 0.00 | 0.00 | 4 | 1016.9 |
| 20260507081523 | 52 | 95 | 1.7 | 7.0 | 0.00 | 0.00 | 0.00 | 1 | 1016.9 |
| 20260507080022 | 49 | 94 | 0.9 | 3.5 | 0.00 | 0.00 | 0.00 | 1 | 1016.9 |
| 20260507074514 | 47 | 99 | 0.0 | 2.6 | 0.00 | 0.00 | 0.00 | 1 | 1016.8 |
| 20260507073011 | 46 | 37 | 1.7 | 4.3 | 0.00 | 0.00 | 0.00 | 1 | 1016.8 |
| 20260507071505 | 45 | 56 | 1.7 | 3.5 | 0.00 | 0.00 | 0.00 | 1 | 1016.8 |
| 20260507070002 | 43 | 49 | 0.9 | 2.6 | 0.00 | 0.00 | 0.00 | 1 | 1016.8 |
| 20260507064600 | 42 | 55 | 0.0 | 1.7 | 0.00 | 0.00 | 0.00 | 1 | 1016.8 |
| 20260507063057 | 41 | 317 | 0.0 | 0.0 | 0.00 | 0.00 | 0.00 | 1 | 1016.8 |
| 20260507061548 | 40 | 310 | 0.0 | 0.0 | 0.00 | 0.00 | 0.00 | 1 | 1016.8 |
| 20260507060043 | 40 | 295 | 0.0 | 1.7 | 0.00 | 0.00 | 0.00 | 1 | 1016.7 |
| 20260507054540 | 39 | 295 | 0.0 | 1.7 | 0.00 | 0.00 | 0.00 | 1 | 1016.6 |
| 20260507053034 | 39 | 302 | 0.0 | 0.9 | 0.00 | 0.00 | 0.00 | 1 | 1016.5 |
| 20260507051532 | 39 | 302 | 0.0 | 0.9 | 0.00 | 0.00 | 0.00 | 1 | 1016.4 |
| 20260507050028 | 39 | 337 | 0.0 | 0.0 | 0.00 | 0.00 | 0.00 | 1 | 1016.4 |
| 20260507044519 | 40 | 337 | 0.0 | 0.0 | 0.00 | 0.00 | 0.00 | 1 | 1016.2 |
| 20260507043022 | 40 | 337 | 0.0 | 0.0 | 0.00 | 0.00 | 0.00 | 1 | 1016.1 |
| 20260507041511 | 40 | 337 | 0.0 | 0.0 | 0.00 | 0.00 | 0.00 | 1 | 1016.1 |
| 20260507040010 | 41 | 337 | 0.0 | 0.0 | 0.00 | 0.00 | 0.00 | 1 | 1016.2 |
| 20260507034503 | 41 | 337 | 0.0 | 0.0 | 0.00 | 0.00 | 0.00 | 1 | 1016.2 |
| 20260507033105 | 41 | 337 | 0.0 | 0.0 | 0.00 | 0.00 | 0.00 | 1 | 1016.1 |
| 20260507031554 | 42 | 337 | 0.0 | 0.0 | 0.00 | 0.00 | 0.00 | 1 | 1016.2 |
| 20260507030049 | 42 | 337 | 0.0 | 0.0 | 0.00 | 0.00 | 0.00 | 1 | 1016.1 |
| 20260507024551 | 43 | 337 | 0.0 | 0.0 | 0.00 | 0.00 | 0.00 | 1 | 1016.1 |
| 20260507023047 | 43 | 337 | 0.0 | 0.0 | 0.00 | 0.00 | 0.00 | 1 | 1016.0 |
| 20260507021538 | 44 | 337 | 0.0 | 1.7 | 0.00 | 0.00 | 0.00 | 1 | 1016.1 |
| 20260507020045 | 44 | 343 | 0.0 | 1.7 | 0.00 | 0.00 | 0.00 | 1 | 1015.9 |
| 20260507014531 | 44 | 343 | 0.0 | 0.0 | 0.00 | 0.00 | 0.00 | 1 | 1015.8 |
| 20260507013041 | 44 | 343 | 0.0 | 0.0 | 0.00 | 0.00 | 0.00 | 1 | 1015.8 |
| 20260507011519 | 45 | 343 | 0.0 | 0.9 | 0.00 | 0.00 | 0.00 | 1 | 1015.9 |
| 20260507010023 | 45 | 343 | 0.0 | 0.9 | 0.00 | 0.00 | 0.00 | 1 | 1015.9 |
| 20260507004509 | 46 | 343 | 0.0 | 0.9 | 0.00 | 0.00 | 0.00 | 1 | 1015.9 |
| 20260507003006 | 46 | 343 | 0.0 | 0.9 | 0.00 | 0.00 | 0.00 | 1 | 1015.9 |
| 20260507001501 | 47 | 343 | 0.0 | 0.9 | 0.00 | 0.00 | 0.00 | 1 | 1016.0 |
| 20260507000058 | 47 | 324 | 0.0 | 1.7 | 0.00 | 0.00 | 0.00 | 1 | 1016.0 |
| 20260506234553 | 47 | 338 | 0.0 | 1.7 | 0.00 | 0.00 | 0.00 | 5 | 1015.9 |
| 20260506233102 | 48 | 333 | 0.0 | 1.7 | 0.00 | 0.00 | 0.00 | 14 | 1015.7 |
| 20260506231549 | 48 | 335 | 0.0 | 1.7 | 0.00 | 0.00 | 0.00 | 20 | 1015.7 |
| 20260506230048 | 48 | 343 | 0.0 | 1.7 | 0.00 | 0.00 | 0.00 | 26 | 1015.7 |
| 20260506224538 | 49 | 348 | 0.0 | 1.7 | 0.00 | 0.00 | 0.00 | 30 | 1015.7 |
| 20260506223041 | 49 | 19 | 0.0 | 2.6 | 0.00 | 0.00 | 0.00 | 34 | 1015.7 |
| 20260506221529 | 50 | 37 | 0.0 | 2.6 | 0.00 | 0.00 | 0.00 | 40 | 1015.6 |
| 20260506220026 | 50 | 17 | 0.9 | 2.6 | 0.00 | 0.00 | 0.00 | 45 | 1015.5 |
| 20260506214535 | 50 | 34 | 0.9 | 4.3 | 0.00 | 0.00 | 0.00 | 50 | 1015.4 |
| 20260506213019 | 50 | 51 | 0.0 | 3.5 | 0.00 | 0.00 | 0.00 | 53 | 1015.4 |
| 20260506211513 | 50 | 19 | 0.9 | 5.2 | 0.00 | 0.00 | 0.00 | 56 | 1015.3 |
| 20260506210008 | 50 | 54 | 0.9 | 3.5 | 0.00 | 0.00 | 0.00 | 58 | 1015.2 |
| 20260506204503 | 51 | 353 | 0.9 | 4.3 | 0.00 | 0.00 | 0.00 | 61 | 1015.2 |
| 20260506203100 | 51 | 324 | 0.9 | 3.5 | 0.00 | 0.00 | 0.00 | 62 | 1015.1 |
| 20260506201555 | 51 | 22 | 0.9 | 4.3 | 0.00 | 0.00 | 0.00 | 62 | 1014.9 |
| 20260506200051 | 51 | 348 | 0.9 | 3.5 | 0.00 | 0.00 | 0.00 | 62 | 1014.9 |
| 20260506194547 | 52 | 329 | 0.0 | 3.5 | 0.00 | 0.00 | 0.00 | 61 | 1014.7 |
| 20260506193040 | 52 | 348 | 1.7 | 4.3 | 0.00 | 0.00 | 0.00 | 61 | 1014.5 |
| 20260506191540 | 52 | 35 | 2.6 | 5.2 | 0.00 | 0.00 | 0.00 | 61 | 1014.4 |
| 20260506190031 | 53 | 306 | 1.7 | 7.8 | 0.00 | 0.00 | 0.00 | 61 | 1014.4 |
| 20260506184540 | 53 | 295 | 2.6 | 4.3 | 0.00 | 0.00 | 0.00 | 61 | 1014.3 |
| 20260506183030 | 53 | 312 | 1.7 | 5.2 | 0.00 | 0.00 | 0.00 | 61 | 1014.2 |
| 20260506181517 | 53 | 15 | 0.9 | 3.5 | 0.00 | 0.00 | 0.00 | 61 | 1014.1 |
| 20260506180012 | 53 | 324 | 1.7 | 5.2 | 0.00 | 0.00 | 0.00 | 60 | 1013.9 |
| 20260506174507 | 54 | 14 | 1.7 | 5.2 | 0.00 | 0.00 | 0.00 | 60 | 1013.6 |
| 20260506173003 | 54 | 309 | 0.9 | 5.2 | 0.00 | 0.00 | 0.00 | 59 | 1013.7 |
| 20260506171605 | 54 | 293 | 3.5 | 7.0 | 0.00 | 0.00 | 0.00 | 59 | 1013.6 |
| 20260506170056 | 55 | 337 | 2.6 | 7.0 | 0.00 | 0.00 | 0.00 | 58 | 1013.5 |
| 20260506164550 | 55 | 324 | 1.7 | 7.8 | 0.00 | 0.00 | 0.00 | 59 | 1013.5 |
| 20260506163046 | 56 | 332 | 3.5 | 8.7 | 0.00 | 0.00 | 0.00 | 58 | 1013.6 |
| 20260506161546 | 57 | 324 | 1.7 | 7.8 | 0.00 | 0.00 | 0.00 | 57 | 1013.5 |
| 20260506160037 | 56 | 358 | 5.2 | 9.6 | 0.00 | 0.00 | 0.00 | 57 | 1013.5 |
| 20260506154533 | 57 | 337 | 1.7 | 9.6 | 0.00 | 0.00 | 0.00 | 56 | 1013.6 |
| 20260506153028 | 57 | 309 | 1.7 | 7.0 | 0.00 | 0.00 | 0.00 | 55 | 1013.7 |
| 20260506151522 | 58 | 46 | 3.5 | 11.3 | 0.00 | 0.00 | 0.00 | 56 | 1013.6 |
| 20260506150019 | 58 | 326 | 3.5 | 9.6 | 0.00 | 0.00 | 0.00 | 56 | 1013.8 |
| 20260506144517 | 59 | 340 | 2.6 | 12.2 | 0.00 | 0.00 | 0.00 | 55 | 1013.8 |
| 20260506143011 | 60 | 298 | 2.6 | 7.8 | 0.00 | 0.00 | 0.00 | 54 | 1013.7 |
| 20260506141506 | 59 | 50 | 3.5 | 12.2 | 0.00 | 0.00 | 0.00 | 54 | 1013.7 |
| 20260506140003 | 60 | 64 | 3.5 | 10.4 | 0.00 | 0.00 | 0.00 | 53 | 1013.7 |
| 20260506134557 | 61 | 15 | 3.5 | 8.7 | 0.00 | 0.00 | 0.00 | 52 | 1013.7 |
| 20260506133052 | 60 | 348 | 2.6 | 13.0 | 0.00 | 0.00 | 0.00 | 54 | 1013.7 |
| 20260506131553 | 60 | 339 | 3.5 | 10.4 | 0.00 | 0.00 | 0.00 | 53 | 1013.6 |
| 20260506130044 | 60 | 339 | 7.0 | 13.9 | 0.00 | 0.00 | 0.00 | 51 | 1013.7 |
| 20260506124539 | 60 | 348 | 3.5 | 14.8 | 0.00 | 0.00 | 0.00 | 51 | 1013.6 |
| 20260506123035 | 60 | 52 | 3.5 | 13.9 | 0.00 | 0.00 | 0.00 | 50 | 1013.6 |
| 20260506121529 | 60 | 342 | 3.5 | 11.3 | 0.00 | 0.00 | 0.00 | 50 | 1013.7 |
| 20260506120025 | 60 | 358 | 4.3 | 11.3 | 0.00 | 0.00 | 0.00 | 49 | 1013.7 |
| 20260506114526 | 60 | 343 | 7.0 | 13.9 | 0.00 | 0.00 | 0.00 | 50 | 1013.7 |
| 20260506113029 | 59 | 43 | 6.1 | 12.2 | 0.00 | 0.00 | 0.00 | 50 | 1013.9 |
| 20260506111513 | 58 | 79 | 6.1 | 13.0 | 0.00 | 0.00 | 0.00 | 52 | 1013.9 |
| 20260506110008 | 58 | 312 | 3.5 | 13.0 | 0.00 | 0.00 | 0.00 | 53 | 1013.9 |
| 20260506104502 | 57 | 22 | 4.3 | 10.4 | 0.00 | 0.00 | 0.00 | 54 | 1014.0 |
| 20260506103058 | 56 | 19 | 7.0 | 12.2 | 0.00 | 0.00 | 0.00 | 56 | 1014.0 |
| 20260506101553 | 55 | 297 | 4.3 | 9.6 | 0.00 | 0.00 | 0.00 | 59 | 1014.0 |